Regional Weather Roundup
Issued by NWS

Home | Current Version | Previous Version | Graphics & Text | Print | Product List | Glossary On
Versions: 1 2 3 4 5 6 7 8 9 10 11 12 13 14 15 16 17 18 19 20 21 22 23 24 25 26 27 28 29 30 31 32 33 34 35 36 37 38 39 40 41 42 43 44 45 46 47 48 49 50
000
ASUS45 KCYS 230010
RWRWY

WYOMING REGIONAL WEATHER ROUNDUP
NATIONAL WEATHER SERVICE CHEYENNE WY
600 PM MDT FRI AUG 22 2014

NOTE:  "FAIR" INDICATES FEW OR NO CLOUDS BELOW 12,000 FEET
WITH NO SIGNIFICANT WEATHER AND/OR OBSTRUCTIONS TO VISIBILITY.

WYZ001-230100-
YELLOWSTONE NATIONAL PARK

CITY           SKY/WX    TMP DP  RH WIND       PRES   REMARKS
LK YELLOWSTONE   N/A     50  40  68 VRB3      30.18F
6HR MIN TEMP:  48; 6HR MAX TEMP:  52;

W YELLOWSTONE  NOT AVBL

$$
WYZ002>013-054>058-071-098>099-230100-
NORTHERN WYOMING

CITY           SKY/WX    TMP DP  RH WIND       PRES   REMARKS
JACKSON        CLOUDY    48  46  93 S5        30.15F
CODY           CLOUDY   N/A N/A N/A N9        30.02F
GREYBULL       MOSUNNY   69  54  58 W8        29.95F
6HR MIN TEMP:  61; 6HR MAX TEMP:  71;

WORLAND        MOSUNNY   72  50  45 N6        29.96F
6HR MIN TEMP:  67; 6HR MAX TEMP:  75;

SHERIDAN       CLOUDY    69  56  62 N7        30.00S
6HR MIN TEMP:  65; 6HR MAX TEMP:  73; 6HR PCP: TRACE;

BUFFALO        MOSUNNY   66  57  72 N12       30.03F
6HR MIN TEMP:  62; 6HR MAX TEMP:  72; 6HR PCP:  0.20;

GILLETTE       PTSUNNY   62  54  74 N25G35    29.96R
6HR MIN TEMP:  61; 6HR MAX TEMP:  81;

HULETT         FAIR      70  59  68 MISG      30.02
NEWCASTLE      FAIR      77  52  41 SE18      29.98

$$
WYZ014>020-022>026-101>103-230100-
CENTRAL WYOMING

CITY           SKY/WX    TMP DP  RH WIND       PRES   REMARKS
BIG PINEY      CLOUDY    52  43  71 N15       30.14F
6HR MIN TEMP:  48; 6HR MAX TEMP:  56; 6HR PCP:  0.01;

PINEDALE       CLOUDY    52  43  71 W13       30.14S
DUBOIS         MOCLDY    54  41  62 NW12      30.13F
LANDER         PTSUNNY   66  42  41 W5        30.05R
6HR MIN TEMP:  63; 6HR MAX TEMP:  71; 6HR PCP: TRACE;

RIVERTON       MOSUNNY   70  42  36 NW14      30.02S
6HR MIN TEMP:  64; 6HR MAX TEMP:  72; 6HR PCP: TRACE;

CASPER         CLOUDY    71  53  52 N3        29.99S
6HR MIN TEMP:  66; 6HR MAX TEMP:  81; 6HR PCP:  0.15;

DOUGLAS        TSTM      66  57  72 N7        30.01S
6HR MIN TEMP:  65; 6HR MAX TEMP:  81; 6HR PCP: TRACE;


$$
WYZ021-027>030-104>119-230100-
SOUTHERN WYOMING

CITY           SKY/WX    TMP DP  RH WIND       PRES   REMARKS
EVANSTON       CLOUDY    52  47  83 N20G32    30.14R
6HR MIN TEMP:  52; 6HR MAX TEMP:  71; 6HR PCP: TRACE;

KEMMERER       CLOUDY    52  43  71 NW13G23   30.15R
FORT BRIDGER   CLOUDY    55  53  91 N10       30.15R
ROCK SPRINGS   CLOUDY    58  49  72 NW12      30.09R
6HR MIN TEMP:  57; 6HR MAX TEMP:  77; 6HR PCP: TRACE;

DIXON          CLOUDY    62  52  71 E13       30.12F
RAWLINS        CLOUDY    68  42  38 S18       30.07F
6HR MIN TEMP:  67; 6HR MAX TEMP:  76;

SARATOGA       FAIR      63  45  51 MISG      30.11F
LARAMIE        CLOUDY    62  51  67 SE21G30   30.13F
6HR MIN TEMP:  62; 6HR MAX TEMP:  71;

CHEYENNE       HVY RAIN  61  58  90 S16G23    30.11S FOG
6HR MIN TEMP:  62; 6HR MAX TEMP:  73; 6HR PCP:  0.01;

TORRINGTON     CLOUDY    70  58  65 SE15      30.00S
6HR MIN TEMP:  70; 6HR MAX TEMP:  77;

PINE BLUFFS    LGT RAIN  66  54  63 S15G23    30.10R

$$


USA.gov is the U.S. government's official web portal to all federal, state and local government web resources and services.